DW5330 Weather Reports


time (UTC)temp
C
wind
direction
speed
KPH
gust
KPH
rain 1hr
cm
rain 24hr
cm
rain mn
cm
humidity
%
barometer
mb
20260504141007 18 204 1.6 4.8 0.13 0.25 0.00 79 1016.1
20260504130506 20 146 0.0 3.2 0.00 0.30 0.13 76 1016.1
20260504100506 21 301 8.0 14.5 0.03 0.43 0.13 70 1015.1
20260504050005 19 279 8.0 11.3 0.00 0.41 0.10 76 1014.8
20260504045505 19 290 8.0 11.3 0.00 0.41 0.10 76 1014.8
20260504043506 19 308 8.0 16.1 0.00 0.41 0.10 77 1014.9
20260504043005 19 310 8.0 12.9 0.00 0.41 0.10 78 1014.9
20260504042506 19 280 4.8 11.3 0.00 0.41 0.10 80 1015.0
20260504042006 19 296 4.8 8.0 0.00 0.41 0.10 82 1015.0
20260504041005 19 302 1.6 3.2 0.00 0.41 0.10 84 1015.2
20260504035006 18 331 0.0 3.2 0.00 0.41 0.10 84 1015.4
20260504034506 18 294 1.6 3.2 0.00 0.41 0.08 84 1015.4
20260504034006 18 295 3.2 8.0 0.00 0.41 0.08 83 1015.4
20260504032506 18 290 3.2 8.0 0.05 0.41 0.08 82 1015.7
20260504031505 18 289 4.8 8.0 0.05 0.41 0.08 82 1015.8
20260504031006 18 297 6.4 9.7 0.05 0.41 0.08 84 1015.9
20260504025505 18 270 4.8 9.7 0.05 0.41 0.08 85 1016.4
20260504025006 18 284 4.8 12.9 0.05 0.41 0.08 86 1016.4
20260504023006 18 265 3.2 9.7 0.05 0.38 0.05 85 1016.8
20260504022005 18 282 3.2 8.0 0.03 0.36 0.03 84 1016.9
20260504021505 18 282 3.2 9.7 0.03 0.36 0.03 83 1017.0
20260504021006 19 275 8.0 9.7 0.03 0.36 0.03 82 1017.1
20260504020506 19 292 8.0 27.4 0.03 0.36 0.03 81 1017.3
20260504015505 19 281 8.0 19.3 0.03 0.36 0.03 79 1017.3
20260504015006 19 274 6.4 16.1 0.03 0.33 0.03 79 1017.4
20260504013505 20 284 3.2 8.0 0.00 0.33 0.00 80 1017.5
20260504013006 20 280 1.6 4.8 0.00 0.33 0.00 78 1017.6
20260504012006 20 288 3.2 3.2 0.00 0.33 0.00 76 1017.8
20260504011005 20 302 1.6 3.2 0.00 0.33 0.00 75 1017.6
20260504010506 20 292 3.2 3.2 0.00 0.33 0.00 75 1017.9
20260504010005 20 291 3.2 4.8 0.00 0.33 0.00 74 1017.9
20260504004505 21 288 1.6 3.2 0.00 0.33 0.00 72 1017.8
20260504004006 20 53 1.6 3.2 0.00 0.33 0.00 72 1017.7
20260504001505 21 112 0.0 0.0 0.00 0.33 0.00 74 1017.8
20260503235505 20 160 0.0 3.2 0.00 0.33 0.00 77 1018.0
20260503235005 20 163 0.0 1.6 0.00 0.33 0.00 75 1018.1
20260503234505 20 170 1.6 3.2 0.00 0.33 0.00 74 1018.2
20260503233005 20 282 4.8 8.0 0.00 0.33 0.00 72 1018.0
20260503232006 20 289 6.4 12.9 0.00 0.33 0.00 72 1018.1
20260503231505 20 288 4.8 8.0 0.00 0.33 0.00 73 1018.1
20260503231005 20 285 3.2 4.8 0.00 0.33 0.00 75 1018.0
20260503230505 20 287 3.2 8.0 0.00 0.33 0.00 76 1018.0
20260503230005 20 291 4.8 4.8 0.00 0.33 0.00 76 1017.9
20260503225505 20 283 1.6 4.8 0.00 0.33 0.00 76 1017.8
20260503225005 20 286 1.6 3.2 0.00 0.33 0.00 75 1017.8
20260503222505 20 335 0.0 3.2 0.00 0.33 0.00 77 1017.4
20260503222005 20 320 1.6 4.8 0.00 0.33 0.00 78 1017.4
20260503221505 20 289 3.2 8.0 0.00 0.33 0.00 77 1017.4
20260503221005 20 287 4.8 8.0 0.00 0.33 0.00 76 1017.3
20260503220005 20 308 4.8 4.8 0.00 0.33 0.00 76 1017.2
20260503215005 20 289 4.8 9.7 0.00 0.33 0.00 77 1017.4
20260503214005 20 275 4.8 8.0 0.00 0.33 0.00 77 1017.1
20260503211505 19 297 3.2 8.0 0.00 0.33 0.00 78 1017.0
20260503202505 18 285 4.8 8.0 0.00 0.33 0.00 82 1016.6
20260503200505 18 1 1.6 3.2 0.00 0.33 0.00 81 1016.3
20260503195005 18 288 4.8 8.0 0.00 0.33 0.00 81 1016.3
20260503194504 18 288 3.2 4.8 0.00 0.33 0.00 82 1016.2
20260503194005 18 289 3.2 4.8 0.00 0.33 0.00 83 1016.2
20260503193005 18 296 0.0 3.2 0.00 0.33 0.00 82 1016.1
20260503192505 18 296 0.0 4.8 0.00 0.33 0.00 82 1016.0
20260503191505 18 296 3.2 4.8 0.00 0.33 0.00 82 1016.1
20260503191004 18 299 1.6 4.8 0.00 0.33 0.00 83 1016.2
20260503190505 18 292 3.2 4.8 0.00 0.33 0.00 83 1016.3
20260503184005 18 296 4.8 8.0 0.00 0.33 0.00 85 1016.2
20260503183005 18 293 1.6 3.2 0.00 0.33 0.00 85 1016.2
20260503182006 18 42 0.0 3.2 0.00 0.33 0.00 85 1016.1
20260503181004 18 337 1.6 3.2 0.00 0.33 0.00 84 1016.1
20260503180504 18 27 0.0 4.8 0.00 0.33 0.00 84 1016.1
20260503180005 18 95 1.6 4.8 0.00 0.33 0.00 84 1016.1
20260503175505 18 317 1.6 4.8 0.00 0.33 0.00 84 1016.1
20260503175005 18 336 1.6 4.8 0.00 0.33 0.00 84 1016.2
20260503174504 18 335 3.2 4.8 0.00 0.33 0.00 84 1016.2
20260503174005 18 324 4.8 8.0 0.00 0.33 0.00 84 1016.2
20260503172004 18 324 1.6 4.8 0.00 0.33 0.00 82 1016.5
20260503171504 19 300 1.6 3.2 0.00 0.33 0.00 82 1016.5
20260503171004 19 71 1.6 3.2 0.00 0.33 0.00 82 1016.5
20260503170505 19 156 1.6 4.8 0.00 0.33 0.00 81 1016.5
20260503151007 20 321 3.2 8.0 0.00 0.33 0.00 78 1017.5